[[{"header":{"parameterUnit":"m.s-1","parameterCategory":1,"la1":30.2991,"la2":30.254,"lo1":-89.0895,"lo2":-89.0444,"dy":0.0017,"dx":0.0017,"nx":28,"ny":28,"refTime":"2025-06-01T09:00:00:Z","depth":0,"parameterNumber":2,"parameterNumberName":"U-component_of_WINDS"},"data":[0,0,0,0,0,0,0,0,0,0,0,0,0,0,0,0,0,0,0,0,0,0,0,0,0,0,0,0,0,0,0,0,0,0,0,0,0,0,0,0,0,0,0,0,0,0,0,0,0,0,0,0,0,0,0,0,0,0,-0.2062,-0.2062,0,-0.2053,-0.2053,-0.2053,-0.2063,-0.2063,-0.2063,-0.2064,-0.2054,-0.2053,-0.2053,0,0,0,0,0,0,0,0,0,0,0,0,0,-0.2082,-0.2082,-0.2062,-0.2062,-0.2062,-0.2054,-0.2053,-0.2053,-0.2063,-0.2063,-0.2064,-0.2064,-0.2054,-0.2053,-0.2053,0,0,0,0,0,0,0,0,0,0,0,0,0,-0.2073,-0.2081,-0.2062,-0.2065,-0.2066,-0.2054,-0.2053,-0.2053,-0.2063,-0.2063,-0.2064,-0.2064,-0.2054,-0.2053,-0.2053,-0.2036,0,0,-0.205,-0.2049,0,0,0,0,0,0,0,0,-0.2074,-0.2073,-0.2065,-0.2065,-0.2065,-0.206,-0.2057,-0.2047,-0.2062,-0.2064,-0.2064,-0.2064,-0.2055,-0.2054,-0.2052,-0.2036,-0.2035,-0.205,-0.2049,-0.2049,-0.2049,0,0,0,0,0,0,0,-0.2074,-0.2073,-0.2058,-0.2065,-0.2065,-0.2066,-0.2065,-0.2055,-0.2056,-0.2064,-0.2064,-0.2063,-0.2055,-0.2052,-0.2051,-0.2035,-0.205,-0.2049,-0.2048,-0.2048,-0.2001,-0.2001,0,0,0,0,0,0,-0.2075,-0.2073,-0.2059,-0.2058,-0.2071,-0.2065,-0.2065,-0.2061,-0.2057,-0.2057,-0.2063,-0.2064,-0.2054,-0.2052,-0.2051,-0.2029,-0.2049,-0.2048,-0.2047,-0.2002,-0.2001,-0.2,0,0,0,0,0,0,-0.2075,-0.2074,-0.2059,-0.2066,-0.2064,-0.2064,-0.206,-0.2061,-0.2057,-0.2056,-0.2056,-0.206,-0.2054,-0.2052,-0.2039,-0.2029,-0.2048,-0.2047,-0.2003,-0.2002,-0.2001,-0.1986,0,0,0,0,0,0,-0.2076,-0.2074,-0.2069,-0.2066,-0.2064,-0.2048,-0.206,-0.206,-0.2056,-0.2057,-0.2053,-0.2053,-0.2054,-0.204,-0.2038,-0.2028,-0.2046,-0.2004,-0.2002,-0.2001,-0.1988,-0.1985,-0.1983,0,0,0,0,0,-0.2077,-0.2065,-0.2068,-0.2067,-0.2058,-0.2048,-0.2047,-0.2049,-0.2055,-0.2049,-0.2048,-0.2053,-0.203,-0.2039,-0.2036,-0.2026,-0.2004,-0.2003,-0.2001,-0.1989,-0.1985,-0.1983,0,0,0,0,0,0,-0.2068,-0.2065,-0.2069,-0.2056,-0.2052,-0.2049,-0.2042,-0.2046,-0.2039,-0.2041,-0.2043,-0.2042,-0.2027,-0.2026,-0.2035,-0.2008,-0.2018,-0.2016,-0.201,-0.2006,-0.2004,-0.2004,-0.2045,0,0,0,0,0,-0.2064,-0.2057,-0.2055,-0.2045,-0.2042,-0.2042,-0.2038,-0.204,-0.2036,-0.2034,-0.2032,-0.2026,-0.2018,-0.2012,-0.2005,-0.1987,-0.1985,-0.1979,-0.1976,-0.1974,-0.1972,-0.1959,-0.1955,-0.1995,-0.1995,-0.1995,0,0,-0.2057,-0.2055,-0.2051,-0.2043,-0.204,-0.2031,-0.2041,-0.2032,-0.2025,-0.2033,-0.2019,-0.2017,-0.2011,-0.1995,-0.1988,-0.1993,-0.196,-0.1972,-0.197,-0.1969,-0.1957,-0.1953,-0.195,-0.1994,-0.1994,-0.1994,0,0,-0.2039,-0.2038,-0.2027,-0.2024,-0.2018,-0.2018,-0.2015,-0.2011,-0.201,-0.1997,-0.2001,-0.1992,-0.1978,-0.1973,-0.1968,-0.1944,-0.1948,-0.1942,-0.1928,-0.1915,-0.1912,-0.1909,-0.1898,-0.1895,-0.194,-0.194,-0.194,0,-0.2031,-0.2019,-0.2022,-0.2011,-0.2006,-0.2012,-0.2,-0.1996,-0.1989,-0.1984,-0.199,-0.197,-0.1967,-0.1948,-0.1942,-0.1939,-0.1934,-0.1942,-0.1913,-0.191,-0.1907,-0.1896,-0.1893,-0.1939,-0.1939,-0.1939,-0.1939,0,-0.2008,-0.1999,-0.1991,-0.1982,-0.1977,-0.1966,-0.1965,-0.1958,-0.196,-0.1958,-0.1942,-0.1938,-0.1928,-0.1924,-0.1926,-0.1904,-0.1907,-0.1913,-0.1923,-0.1902,-0.1892,-0.1888,-0.1937,-0.1938,-0.1938,-0.1938,0,0,-0.1986,-0.1977,-0.1974,-0.1968,-0.1962,-0.1954,-0.1942,-0.1932,-0.1925,-0.1919,-0.1907,-0.1893,-0.1897,-0.1892,-0.1893,-0.1882,-0.186,-0.1889,-0.1889,-0.1882,-0.1831,-0.1826,-0.1821,-0.1862,-0.1861,-0.1861,-0.1831,0,-0.1966,-0.1946,-0.1946,-0.1926,-0.1916,-0.192,-0.1909,-0.1902,-0.1899,-0.1889,-0.1886,-0.1875,-0.1883,-0.1879,-0.1869,-0.1865,-0.1849,-0.1867,-0.1849,-0.1848,-0.1849,-0.1816,-0.1811,-0.1784,-0.1827,-0.1827,-0.1826,0,-0.1942,-0.1933,-0.1912,-0.1903,-0.1899,-0.189,-0.1878,-0.1869,-0.186,-0.1859,-0.1851,-0.1853,-0.1838,-0.1848,-0.1826,-0.1838,-0.183,-0.1827,-0.1826,-0.1823,-0.1835,-0.1811,-0.1775,-0.177,-0.1821,-0.1821,-0.1821,0,-0.1925,-0.1909,-0.1893,-0.1889,-0.1879,-0.1871,-0.1866,-0.1858,-0.1851,-0.1841,-0.1835,-0.1823,-0.1816,-0.1806,-0.1803,-0.1812,-0.178,-0.1792,-0.1776,-0.1776,-0.1769,-0.1769,-0.1729,-0.1767,-0.1767,-0.1767,-0.1767,0,-0.1903,-0.1889,-0.1885,-0.1875,-0.1859,-0.1858,-0.1842,-0.1837,-0.1829,-0.1817,-0.182,-0.1808,-0.1806,-0.1793,-0.179,-0.177,-0.1768,-0.1764,-0.1763,-0.1763,-0.1763,-0.1757,-0.1758,-0.1766,-0.1766,-0.1766,-0.1766,0,-0.1882,-0.1879,-0.1862,-0.1853,-0.185,-0.1838,-0.1829,-0.1819,-0.1815,-0.1799,-0.1795,-0.1789,-0.1774,-0.177,-0.1752,-0.175,-0.1725,-0.1727,-0.1728,-0.1728,-0.1711,-0.1712,-0.1665,-0.1658,-0.1702,-0.1701,-0.1701,0,-0.1868,-0.1857,-0.1846,-0.1838,-0.1832,-0.182,-0.1811,-0.1809,-0.18,-0.1787,-0.1777,-0.1762,-0.1749,-0.1723,-0.1717,-0.1701,-0.1702,-0.1686,-0.17,-0.1698,-0.1698,-0.1698,-0.1696,-0.1684,-0.1683,-0.1683,-0.1683,0,-0.1841,-0.1839,-0.1828,-0.1814,-0.1804,-0.1794,-0.1784,-0.1777,-0.1772,-0.1761,-0.1745,-0.1735,-0.1715,-0.1699,-0.1683,-0.1676,-0.1677,-0.1678,-0.1673,-0.1672,-0.1672,-0.1669,-0.1719,-0.1679,-0.168,-0.168,-0.168,-0.168,-0.1822,-0.1811,-0.1801,-0.1787,-0.1778,-0.1768,-0.1756,-0.175,-0.1736,-0.172,-0.1719,-0.17,-0.1687,-0.1666,-0.1658,-0.1642,-0.1647,-0.164,-0.1638,-0.1636,-0.1634,-0.1675,-0.1639,-0.164,-0.164,-0.164,-0.164,0,-0.1794,-0.1787,-0.1774,-0.1758,-0.1746,-0.1748,-0.1736,-0.1725,-0.1709,-0.1697,-0.1684,-0.1663,-0.1646,-0.1636,-0.1619,-0.1607,-0.1607,-0.1602,-0.1602,-0.16,-0.1632,-0.1637,-0.1603,-0.1603,-0.1603,-0.1603,-0.1603,-0.1603,-0.1778,-0.1759,-0.1755,-0.173,-0.1722,-0.1704,-0.1696,-0.1685,-0.1676,-0.1652,-0.1638,-0.1631,-0.1619,-0.16,-0.1583,-0.1581,-0.1573,-0.1567,-0.1565,-0.1595,-0.1598,-0.1602,-0.1606,-0.1566,-0.1566,-0.1534,-0.1533,-0.1533]},{"header":{"parameterUnit":"m.s-1","parameterCategory":1,"la1":30.2991,"la2":30.254,"lo1":-89.0895,"lo2":-89.0444,"dy":0.0017,"dx":0.0017,"nx":28,"ny":28,"refTime":"2025-06-01T09:00:00:Z","depth":0,"parameterNumber":3,"parameterNumberName":"V-component_of_WINDS"},"data":[0,0,0,0,0,0,0,0,0,0,0,0,0,0,0,0,0,0,0,0,0,0,0,0,0,0,0,0,0,0,0,0,0,0,0,0,0,0,0,0,0,0,0,0,0,0,0,0,0,0,0,0,0,0,0,0,0,0,-2.5267,-2.5268,0,-2.5381,-2.5382,-2.5384,-2.5384,-2.5382,-2.5381,-2.5379,-2.5494,-2.5498,-2.5503,0,0,0,0,0,0,0,0,0,0,0,0,0,-2.5047,-2.5051,-2.5267,-2.5269,-2.527,-2.5381,-2.5383,-2.5384,-2.5384,-2.5382,-2.538,-2.5379,-2.5492,-2.5498,-2.5503,0,0,0,0,0,0,0,0,0,0,0,0,0,-2.515,-2.5052,-2.5267,-2.5283,-2.5286,-2.5381,-2.5383,-2.5385,-2.5384,-2.5382,-2.538,-2.5378,-2.5491,-2.5497,-2.5504,-2.5589,0,0,-2.5524,-2.5527,0,0,0,0,0,0,0,0,-2.5144,-2.5158,-2.528,-2.5282,-2.5286,-2.5366,-2.5347,-2.5453,-2.5385,-2.5347,-2.5379,-2.5377,-2.5453,-2.5463,-2.5489,-2.5594,-2.5599,-2.5525,-2.5529,-2.5531,-2.5533,0,0,0,0,0,0,0,-2.5137,-2.5153,-2.5312,-2.5281,-2.5285,-2.5284,-2.5296,-2.5367,-2.5411,-2.535,-2.535,-2.5364,-2.5454,-2.5482,-2.5491,-2.5601,-2.5524,-2.553,-2.5534,-2.5537,-2.578,-2.5782,0,0,0,0,0,0,-2.5126,-2.5147,-2.5309,-2.5316,-2.5208,-2.529,-2.5304,-2.5342,-2.541,-2.5418,-2.5366,-2.5364,-2.5472,-2.5484,-2.5495,-2.5598,-2.5531,-2.5538,-2.5541,-2.5777,-2.578,-2.5783,0,0,0,0,0,0,-2.5122,-2.5141,-2.5304,-2.5231,-2.5252,-2.5296,-2.534,-2.5346,-2.5374,-2.5422,-2.543,-2.5387,-2.5471,-2.5486,-2.5565,-2.5602,-2.5541,-2.5547,-2.5775,-2.5778,-2.5782,-2.5805,0,0,0,0,0,0,-2.5115,-2.5139,-2.5173,-2.5232,-2.5256,-2.5373,-2.5342,-2.535,-2.5386,-2.5384,-2.5444,-2.5451,-2.547,-2.5555,-2.5572,-2.561,-2.5552,-2.5771,-2.5776,-2.5781,-2.5801,-2.5809,-2.5816,0,0,0,0,0,-2.5108,-2.5175,-2.5174,-2.5194,-2.5299,-2.5375,-2.5389,-2.541,-2.5389,-2.5422,-2.5453,-2.5449,-2.5596,-2.5564,-2.5582,-2.5623,-2.5769,-2.5775,-2.578,-2.5798,-2.5808,-2.5816,0,0,0,0,0,0,-2.5118,-2.5183,-2.5183,-2.5272,-2.5318,-2.5375,-2.5418,-2.542,-2.5472,-2.5468,-2.5491,-2.5505,-2.5583,-2.5611,-2.5574,-2.5708,-2.568,-2.5689,-2.5687,-2.5697,-2.5704,-2.5695,-2.5557,0,0,0,0,0,-2.5131,-2.5188,-2.5241,-2.5314,-2.5337,-2.5374,-2.5408,-2.542,-2.5468,-2.5488,-2.5524,-2.5571,-2.5627,-2.5663,-2.5718,-2.5806,-2.5818,-2.5843,-2.585,-2.5856,-2.5864,-2.5911,-2.5922,-2.5801,-2.5801,-2.5801,0,0,-2.5157,-2.52,-2.5234,-2.5317,-2.5354,-2.5412,-2.539,-2.5452,-2.5495,-2.5497,-2.5574,-2.5602,-2.5655,-2.5739,-2.5777,-2.5764,-2.59,-2.5863,-2.5867,-2.5872,-2.5917,-2.5929,-2.5939,-2.5805,-2.5805,-2.5804,0,0,-2.5235,-2.5274,-2.5338,-2.5376,-2.5432,-2.5456,-2.5471,-2.5528,-2.5547,-2.5625,-2.5627,-2.5678,-2.5775,-2.5812,-2.5844,-2.5935,-2.5933,-2.5952,-2.599,-2.6036,-2.6045,-2.6053,-2.6084,-2.6095,-2.596,-2.596,-2.596,0,-2.5261,-2.5348,-2.537,-2.5433,-2.5468,-2.5474,-2.5538,-2.5573,-2.5645,-2.5669,-2.5653,-2.5774,-2.5811,-2.5902,-2.5924,-2.595,-2.5968,-2.5945,-2.6042,-2.6051,-2.6059,-2.6089,-2.61,-2.5961,-2.5961,-2.5961,-2.5961,0,-2.5376,-2.5437,-2.5482,-2.5551,-2.5592,-2.5655,-2.5686,-2.5724,-2.5733,-2.5758,-2.5836,-2.588,-2.5942,-2.5965,-2.5974,-2.6058,-2.6048,-2.6037,-2.6009,-2.6072,-2.61,-2.6112,-2.5964,-2.5963,-2.5963,-2.5962,0,0,-2.5463,-2.5544,-2.556,-2.559,-2.5653,-2.57,-2.5763,-2.5825,-2.5857,-2.5906,-2.5958,-2.604,-2.603,-2.6066,-2.6079,-2.6119,-2.6186,-2.6103,-2.6105,-2.6116,-2.6279,-2.6286,-2.6299,-2.6186,-2.6188,-2.619,-2.6274,0,-2.5547,-2.5659,-2.568,-2.5777,-2.5833,-2.5838,-2.5893,-2.5936,-2.5961,-2.6011,-2.6038,-2.6095,-2.6078,-2.61,-2.614,-2.617,-2.6219,-2.6164,-2.6233,-2.6235,-2.6219,-2.6314,-2.6322,-2.6399,-2.6286,-2.6288,-2.6289,0,-2.5659,-2.5711,-2.5813,-2.5868,-2.5892,-2.594,-2.5998,-2.6046,-2.6096,-2.6111,-2.6151,-2.6159,-2.6223,-2.6192,-2.628,-2.6242,-2.6272,-2.629,-2.6294,-2.63,-2.6265,-2.6321,-2.6424,-2.6435,-2.6307,-2.6305,-2.6304,0,-2.571,-2.5806,-2.5879,-2.5906,-2.5971,-2.6005,-2.6034,-2.6081,-2.6116,-2.6167,-2.619,-2.6247,-2.6278,-2.6321,-2.6344,-2.632,-2.643,-2.6401,-2.6443,-2.6442,-2.6464,-2.6462,-2.6572,-2.6486,-2.6486,-2.6485,-2.6485,0,-2.58,-2.5862,-2.5903,-2.5948,-2.6017,-2.6041,-2.6109,-2.6137,-2.6179,-2.6228,-2.6237,-2.6283,-2.6311,-2.6361,-2.638,-2.6448,-2.6463,-2.6476,-2.6479,-2.6474,-2.6472,-2.6493,-2.6488,-2.6489,-2.6488,-2.6487,-2.6487,0,-2.5869,-2.5899,-2.5979,-2.6034,-2.605,-2.6098,-2.6145,-2.6188,-2.6213,-2.6276,-2.6292,-2.633,-2.6389,-2.6417,-2.649,-2.6503,-2.658,-2.6581,-2.6564,-2.6565,-2.6604,-2.6599,-2.673,-2.6747,-2.665,-2.6651,-2.6652,0,-2.5923,-2.5971,-2.6032,-2.6066,-2.6096,-2.6151,-2.6187,-2.6212,-2.6249,-2.6308,-2.6344,-2.6404,-2.6453,-2.6547,-2.658,-2.6636,-2.6637,-2.6679,-2.6646,-2.6639,-2.6636,-2.6633,-2.6637,-2.6685,-2.6686,-2.6687,-2.6687,0,-2.6017,-2.6029,-2.6081,-2.6139,-2.6182,-2.6228,-2.6274,-2.6301,-2.6333,-2.6374,-2.6435,-2.6473,-2.6548,-2.6606,-2.6664,-2.6692,-2.6695,-2.6698,-2.671,-2.6704,-2.6691,-2.6697,-2.6579,-2.6694,-2.6694,-2.6693,-2.6693,-2.6692,-2.6079,-2.6122,-2.617,-2.6228,-2.6265,-2.6307,-2.635,-2.638,-2.6432,-2.6495,-2.6506,-2.657,-2.6617,-2.6695,-2.6726,-2.6775,-2.6766,-2.6784,-2.6788,-2.6792,-2.6793,-2.6685,-2.6786,-2.6786,-2.6786,-2.6786,-2.6786,0,-2.6172,-2.6203,-2.6256,-2.6319,-2.6364,-2.6364,-2.6414,-2.6451,-2.6508,-2.6552,-2.66,-2.6669,-2.6726,-2.6764,-2.6821,-2.6853,-2.6856,-2.6867,-2.6864,-2.6871,-2.6799,-2.6782,-2.6864,-2.6864,-2.6864,-2.6864,-2.6864,-2.6864,-2.6225,-2.6296,-2.6314,-2.6403,-2.6434,-2.6498,-2.6526,-2.6564,-2.6599,-2.6676,-2.6724,-2.6749,-2.679,-2.685,-2.6901,-2.6911,-2.6931,-2.6943,-2.6952,-2.6884,-2.6876,-2.6868,-2.6852,-2.6947,-2.6947,-2.7019,-2.7019,-2.702]}]]